| time (UTC) | temp F | wind direction | speed MPH | gust MPH | rain 1hr in | rain 24hr in | rain mn in | humidity % | barometer mb |
| 20260503191754 | 0 | 274 | 4.0 | 8.0 | 0.00 | 0.00 | 0.00 | 1061.2 | |
| 20260503191251 | 0 | 195 | 4.0 | 6.0 | 0.00 | 0.00 | 0.00 | 1061.3 | |
| 20260503190743 | 0 | 32 | 6.0 | 8.0 | 0.00 | 0.00 | 0.00 | 1061.4 | |
| 20260503190239 | 0 | 247 | 3.0 | 6.0 | 0.00 | 0.00 | 0.00 | 1061.3 | |
| 20260503185736 | 0 | 141 | 3.0 | 3.0 | 0.00 | 0.00 | 0.00 | 1061.3 | |
| 20260503185232 | 0 | 133 | 1.0 | 6.0 | 0.00 | 0.00 | 0.00 | 1061.5 | |
| 20260503184727 | 0 | 148 | 1.0 | 3.0 | 0.00 | 0.00 | 0.00 | 1061.6 | |
| 20260503184223 | 0 | 157 | 3.0 | 9.0 | 0.00 | 0.00 | 0.00 | 1061.6 | |
| 20260503183719 | 0 | 162 | 2.0 | 5.0 | 0.00 | 0.00 | 0.00 | 1061.8 | |
| 20260503183217 | 0 | 135 | 1.0 | 5.0 | 0.00 | 0.00 | 0.00 | 1061.6 | |
| 20260503182715 | 0 | 184 | 3.0 | 14.0 | 0.00 | 0.00 | 0.00 | 1061.8 | |
| 20260503182213 | 0 | 132 | 2.0 | 7.0 | 0.00 | 0.00 | 0.00 | 1061.9 | |
| 20260503181709 | 0 | 215 | 2.0 | 6.0 | 0.00 | 0.00 | 0.00 | 1062.2 | |
| 20260503181207 | 0 | 136 | 1.0 | 3.0 | 0.00 | 0.00 | 0.00 | 1062.0 | |
| 20260503180703 | 0 | 145 | 2.0 | 6.0 | 0.00 | 0.00 | 0.00 | 1062.1 | |
| 20260503180202 | 0 | 198 | 2.0 | 7.0 | 0.00 | 0.00 | 0.00 | 1062.2 | |
| 20260503175658 | 0 | 120 | 1.0 | 6.0 | 0.00 | 0.00 | 0.00 | 1062.5 | |
| 20260503175155 | 0 | 209 | 3.0 | 6.0 | 0.00 | 0.00 | 0.00 | 1062.4 | |
| 20260503174651 | 0 | 156 | 4.0 | 7.0 | 0.00 | 0.00 | 0.00 | 1062.7 | |
| 20260503174149 | 0 | 151 | 2.0 | 3.0 | 0.00 | 0.00 | 0.00 | 1062.8 | |
| 20260503173644 | 0 | 147 | 2.0 | 5.0 | 0.00 | 0.00 | 0.00 | 1062.9 | |
| 20260503173141 | 0 | 195 | 3.0 | 5.0 | 0.00 | 0.00 | 0.00 | 1062.9 | |
| 20260503172638 | 0 | 159 | 1.0 | 2.0 | 0.00 | 0.00 | 0.00 | 1062.9 | |
| 20260503172135 | 0 | 129 | 1.0 | 2.0 | 0.00 | 0.00 | 0.00 | 1063.5 | |
| 20260503171631 | 0 | 136 | 2.0 | 7.0 | 0.00 | 0.00 | 0.00 | 1063.3 | |
| 20260503171129 | 0 | 105 | 2.0 | 5.0 | 0.00 | 0.00 | 0.00 | 1063.6 | |
| 20260503170626 | 0 | 182 | 3.0 | 5.0 | 0.00 | 0.00 | 0.00 | 1063.5 | |
| 20260503170122 | 0 | 145 | 4.0 | 10.0 | 0.00 | 0.00 | 0.00 | 1063.6 | |
| 20260503150514 | 0 | 147 | 2.0 | 5.0 | 0.00 | 0.00 | 0.00 | 1065.0 | |
| 20260503131407 | 0 | 162 | 5.0 | 6.0 | 0.00 | 0.00 | 0.00 | 1065.4 | |
| 20260503130904 | 0 | 152 | 3.0 | 5.0 | 0.00 | 0.00 | 0.00 | 1065.3 | |
| 20260503130402 | 0 | 146 | 2.0 | 6.0 | 0.00 | 0.00 | 0.00 | 1065.4 | |
| 20260503110755 | 0 | 148 | 2.0 | 6.0 | 0.00 | 0.00 | 0.00 | 1064.8 | |
| 20260503110252 | 0 | 154 | 2.0 | 3.0 | 0.00 | 0.00 | 0.00 | 1064.9 | |
| 20260503100224 | 0 | 171 | 3.0 | 6.0 | 0.00 | 0.00 | 0.00 | 1065.2 | |
| 20260503090148 | 0 | 158 | 3.0 | 3.0 | 0.00 | 0.00 | 0.00 | 1065.5 | |
| 20260503081623 | 0 | 146 | 1.0 | 2.0 | 0.00 | 0.00 | 0.00 | 1066.1 | |
| 20260503081121 | 0 | 157 | 2.0 | 3.0 | 0.00 | 0.00 | 0.00 | 1065.7 | |
| 20260503080616 | 0 | 161 | 1.0 | 3.0 | 0.00 | 0.00 | 0.00 | 1065.8 | |
| 20260503080113 | 0 | 163 | 2.0 | 2.0 | 0.00 | 0.00 | 0.00 | 1066.0 | |
| 20260503072550 | 0 | 144 | 1.0 | 2.0 | 0.00 | 0.00 | 0.00 | 1066.3 | |
| 20260503072047 | 0 | 145 | 2.0 | 2.0 | 0.00 | 0.00 | 0.00 | 1066.4 | |
| 20260503071544 | 0 | 145 | 1.0 | 1.0 | 0.00 | 0.00 | 0.00 | 1066.3 | |
| 20260503071041 | 0 | 145 | 1.0 | 2.0 | 0.00 | 0.00 | 0.00 | 1066.3 | |
| 20260503070537 | 0 | 135 | 1.0 | 2.0 | 0.00 | 0.00 | 0.00 | 1066.7 | |
| 20260503054951 | 0 | 143 | 1.0 | 1.0 | 0.00 | 0.00 | 0.00 | 1067.0 | |
| 20260503054447 | 0 | 135 | 1.0 | 1.0 | 0.00 | 0.00 | 0.00 | 1067.1 | |
| 20260503053945 | 0 | 138 | 1.0 | 1.0 | 0.00 | 0.00 | 0.00 | 1066.9 | |
| 20260503053443 | 0 | 139 | 0.0 | 1.0 | 0.00 | 0.00 | 0.00 | 1067.1 | |
| 20260503052939 | 0 | 138 | 0.0 | 0.0 | 0.00 | 0.00 | 0.00 | 1067.1 | |
| 20260503052437 | 0 | 129 | 0.0 | 0.0 | 0.00 | 0.00 | 0.00 | 1067.0 | |
| 20260503051933 | 0 | 136 | 0.0 | 1.0 | 0.00 | 0.00 | 0.00 | 1067.0 | |
| 20260503051429 | 0 | 138 | 0.0 | 1.0 | 0.00 | 0.00 | 0.00 | 1067.0 | |
| 20260503050926 | 0 | 137 | 0.0 | 0.0 | 0.00 | 0.00 | 0.00 | 1066.9 | |
| 20260503050422 | 0 | 128 | 0.0 | 0.0 | 0.00 | 0.00 | 0.00 | 1066.8 | |
| 20260503045920 | 0 | 129 | 0.0 | 0.0 | 0.00 | 0.00 | 0.00 | 1066.8 | |
| 20260503045417 | 0 | 130 | 0.0 | 0.0 | 0.00 | 0.00 | 0.00 | 1066.7 | |
| 20260503044914 | 0 | 128 | 0.0 | 0.0 | 0.00 | 0.00 | 0.00 | 1066.9 | |
| 20260503044411 | 0 | 129 | 0.0 | 0.0 | 0.00 | 0.00 | 0.00 | 1066.9 | |
| 20260503043908 | 0 | 128 | 0.0 | 0.0 | 0.00 | 0.00 | 0.00 | 1066.7 | |
| 20260503043405 | 0 | 129 | 0.0 | 0.0 | 0.00 | 0.00 | 0.00 | 1066.9 | |
| 20260503042901 | 0 | 131 | 0.0 | 0.0 | 0.00 | 0.00 | 0.00 | 1066.8 | |
| 20260503042357 | 0 | 133 | 0.0 | 1.0 | 0.00 | 0.00 | 0.00 | 1067.0 | |
| 20260503041854 | 0 | 136 | 0.0 | 0.0 | 0.00 | 0.00 | 0.00 | 1066.8 | |
| 20260503041351 | 0 | 129 | 0.0 | 0.0 | 0.00 | 0.00 | 0.00 | 1066.8 | |
| 20260503040849 | 0 | 127 | 0.0 | 0.0 | 0.00 | 0.00 | 0.00 | 1066.8 | |
| 20260503040346 | 0 | 129 | 0.0 | 0.0 | 0.00 | 0.00 | 0.00 | 1066.9 | |
| 20260503035843 | 0 | 129 | 0.0 | 0.0 | 0.00 | 0.00 | 0.00 | 1067.1 | |
| 20260503035340 | 0 | 126 | 0.0 | 0.0 | 0.00 | 0.00 | 0.00 | 1066.9 | |
| 20260503034837 | 0 | 129 | 0.0 | 0.0 | 0.00 | 0.00 | 0.00 | 1066.8 | |
| 20260503034334 | 0 | 129 | 0.0 | 0.0 | 0.00 | 0.00 | 0.00 | 1067.0 | |
| 20260503033832 | 0 | 126 | 0.0 | 0.0 | 0.00 | 0.00 | 0.00 | 1066.8 | |
| 20260503033329 | 0 | 126 | 0.0 | 0.0 | 0.00 | 0.00 | 0.00 | 1067.2 | |
| 20260503032827 | 0 | 126 | 0.0 | 0.0 | 0.00 | 0.00 | 0.00 | 1067.2 | |
| 20260503032326 | 0 | 129 | 0.0 | 0.0 | 0.00 | 0.00 | 0.00 | 1067.2 | |
| 20260503031822 | 0 | 129 | 0.0 | 0.0 | 0.00 | 0.00 | 0.00 | 1067.1 | |
| 20260503031320 | 0 | 129 | 0.0 | 0.0 | 0.00 | 0.00 | 0.00 | 1067.0 | |
| 20260503030816 | 0 | 126 | 0.0 | 0.0 | 0.00 | 0.00 | 0.00 | 1066.9 | |
| 20260503030313 | 0 | 128 | 0.0 | 0.0 | 0.00 | 0.00 | 0.00 | 1066.8 | |
| 20260503025810 | 0 | 129 | 0.0 | 0.0 | 0.00 | 0.00 | 0.00 | 1067.2 | |
| 20260503025307 | 0 | 128 | 0.0 | 0.0 | 0.00 | 0.00 | 0.00 | 1066.9 | |
| 20260503024804 | 0 | 128 | 0.0 | 0.0 | 0.00 | 0.00 | 0.00 | 1066.6 | |
| 20260503024301 | 0 | 127 | 0.0 | 0.0 | 0.00 | 0.00 | 0.00 | 1066.8 | |
| 20260503023757 | 0 | 124 | 0.0 | 0.0 | 0.00 | 0.00 | 0.00 | 1066.9 | |
| 20260503023254 | 0 | 126 | 0.0 | 0.0 | 0.00 | 0.00 | 0.00 | 1066.8 | |
| 20260503022750 | 0 | 126 | 0.0 | 0.0 | 0.00 | 0.00 | 0.00 | 1066.7 | |
| 20260503022245 | 0 | 128 | 0.0 | 0.0 | 0.00 | 0.00 | 0.00 | 1066.8 | |
| 20260503021742 | 0 | 126 | 0.0 | 0.0 | 0.00 | 0.00 | 0.00 | 1066.9 | |
| 20260503021238 | 0 | 126 | 0.0 | 0.0 | 0.00 | 0.00 | 0.00 | 1066.6 | |
| 20260503020736 | 0 | 126 | 0.0 | 0.0 | 0.00 | 0.00 | 0.00 | 1066.6 | |
| 20260503020233 | 0 | 126 | 0.0 | 0.0 | 0.00 | 0.00 | 0.00 | 1066.6 | |
| 20260503015730 | 0 | 124 | 0.0 | 0.0 | 0.00 | 0.00 | 0.00 | 1066.6 | |
| 20260503015227 | 0 | 125 | 0.0 | 0.0 | 0.00 | 0.00 | 0.00 | 1066.6 | |
| 20260503014722 | 0 | 126 | 0.0 | 0.0 | 0.00 | 0.00 | 0.00 | 1066.6 | |
| 20260503014221 | 0 | 126 | 0.0 | 0.0 | 0.00 | 0.00 | 0.00 | 1066.5 | |
| 20260503013718 | 0 | 125 | 0.0 | 0.0 | 0.00 | 0.00 | 0.00 | 1066.3 | |
| 20260503013216 | 0 | 124 | 0.0 | 0.0 | 0.00 | 0.00 | 0.00 | 1066.6 | |
| 20260503012713 | 0 | 129 | 0.0 | 0.0 | 0.00 | 0.00 | 0.00 | 1066.4 | |
| 20260503012210 | 0 | 129 | 0.0 | 0.0 | 0.00 | 0.00 | 0.00 | 1066.4 | |
| 20260503011706 | 0 | 129 | 0.0 | 0.0 | 0.00 | 0.00 | 0.00 | 1066.2 | |
| 20260503011203 | 0 | 128 | 0.0 | 0.0 | 0.00 | 0.00 | 0.00 | 1066.1 | |
| 20260503010659 | 0 | 126 | 0.0 | 0.0 | 0.00 | 0.00 | 0.00 | 1066.2 | |
| 20260503010156 | 0 | 132 | 0.0 | 1.0 | 0.00 | 0.00 | 0.00 | 1066.1 | |
| 20260503005654 | 0 | 128 | 0.0 | 1.0 | 0.00 | 0.00 | 0.00 | 1066.2 | |
| 20260503005151 | 0 | 121 | 0.0 | 0.0 | 0.00 | 0.00 | 0.00 | 1066.3 | |
| 20260503004647 | 0 | 126 | 0.0 | 1.0 | 0.00 | 0.00 | 0.00 | 1066.3 | |
| 20260503004145 | 0 | 123 | 1.0 | 1.0 | 0.00 | 0.00 | 0.00 | 1066.2 | |
| 20260503003642 | 0 | 176 | 1.0 | 5.0 | 0.00 | 0.00 | 0.00 | 1066.1 | |
| 20260503003139 | 0 | 108 | 2.0 | 2.0 | 0.00 | 0.00 | 0.00 | 1066.2 | |
| 20260503002636 | 0 | 151 | 1.0 | 2.0 | 0.00 | 0.00 | 0.00 | 1066.1 | |
| 20260503002133 | 0 | 276 | 1.0 | 5.0 | 0.00 | 0.00 | 0.00 | 1066.2 | |
| 20260503001629 | 0 | 181 | 1.0 | 3.0 | 0.00 | 0.00 | 0.00 | 1066.1 | |
| 20260503001126 | 0 | 103 | 2.0 | 5.0 | 0.00 | 0.00 | 0.00 | 1066.0 | |
| 20260503000623 | 0 | 46 | 2.0 | 2.0 | 0.00 | 0.00 | 0.00 | 1066.0 | |
| 20260503000120 | 0 | 341 | 5.0 | 6.0 | 0.00 | 0.00 | 0.00 | 1066.0 | |
| 20260502235617 | 0 | 122 | 1.0 | 3.0 | 0.00 | 0.00 | 0.00 | 1065.7 | |
| 20260502235115 | 0 | 82 | 1.0 | 3.0 | 0.00 | 0.00 | 0.00 | 1065.7 | |
| 20260502234616 | 0 | 133 | 2.0 | 3.0 | 0.00 | 0.00 | 0.00 | 1066.0 | |
| 20260502234114 | 0 | 238 | 3.0 | 6.0 | 0.00 | 0.00 | 0.00 | 1066.0 | |
| 20260502233609 | 0 | 80 | 2.0 | 2.0 | 0.00 | 0.00 | 0.00 | 1066.0 | |
| 20260502233106 | 0 | 62 | 3.0 | 3.0 | 0.00 | 0.00 | 0.00 | 1066.0 | |
| 20260502232602 | 0 | 123 | 1.0 | 5.0 | 0.00 | 0.00 | 0.00 | 1065.8 | |
| 20260502232100 | 0 | 336 | 3.0 | 8.0 | 0.00 | 0.00 | 0.00 | 1066.3 | |
| 20260502231557 | 0 | 282 | 3.0 | 5.0 | 0.00 | 0.00 | 0.00 | 1066.1 | |
| 20260502231055 | 0 | 307 | 3.0 | 3.0 | 0.00 | 0.00 | 0.00 | 1066.1 | |
| 20260502230553 | 0 | 109 | 1.0 | 3.0 | 0.00 | 0.00 | 0.00 | 1066.1 | |
| 20260502230051 | 0 | 119 | 1.0 | 2.0 | 0.00 | 0.00 | 0.00 | 1066.3 | |
| 20260502225546 | 0 | 332 | 3.0 | 5.0 | 0.00 | 0.00 | 0.00 | 1066.4 | |
| 20260502225043 | 0 | 165 | 3.0 | 5.0 | 0.00 | 0.00 | 0.00 | 1066.1 | |
| 20260502224539 | 0 | 139 | 1.0 | 3.0 | 0.00 | 0.00 | 0.00 | 1066.0 | |
| 20260502224036 | 0 | 271 | 3.0 | 3.0 | 0.00 | 0.00 | 0.00 | 1066.0 | |
| 20260502223534 | 0 | 337 | 5.0 | 7.0 | 0.00 | 0.00 | 0.00 | 1066.2 | |
| 20260502223032 | 0 | 52 | 1.0 | 3.0 | 0.00 | 0.00 | 0.00 | 1066.1 | |
| 20260502222529 | 0 | 57 | 3.0 | 6.0 | 0.00 | 0.00 | 0.00 | 1066.2 | |
| 20260502222025 | 0 | 125 | 1.0 | 5.0 | 0.00 | 0.00 | 0.00 | 1066.2 | |
| 20260502221521 | 0 | 2 | 4.0 | 5.0 | 0.00 | 0.00 | 0.00 | 1066.1 | |
| 20260502221019 | 0 | 79 | 2.0 | 7.0 | 0.00 | 0.00 | 0.00 | 1066.2 | |
| 20260502220514 | 0 | 9 | 3.0 | 7.0 | 0.00 | 0.00 | 0.00 | 1066.3 | |
| 20260502220011 | 0 | 20 | 5.0 | 8.0 | 0.00 | 0.00 | 0.00 | 1066.1 | |
| 20260502215509 | 0 | 37 | 3.0 | 7.0 | 0.00 | 0.00 | 0.00 | 1066.3 | |
| 20260502215005 | 0 | 73 | 2.0 | 5.0 | 0.00 | 0.00 | 0.00 | 1066.2 | |
| 20260502214502 | 0 | 308 | 4.0 | 5.0 | 0.00 | 0.00 | 0.00 | 1066.2 | |
| 20260502213959 | 0 | 241 | 2.0 | 2.0 | 0.00 | 0.00 | 0.00 | 1066.1 | |
| 20260502213456 | 0 | 113 | 4.0 | 8.0 | 0.00 | 0.00 | 0.00 | 1066.2 | |
| 20260502212954 | 0 | 15 | 2.0 | 7.0 | 0.00 | 0.00 | 0.00 | 1065.8 | |
| 20260502212453 | 0 | 118 | 0.0 | 2.0 | 0.00 | 0.00 | 0.00 | 1066.2 | |
| 20260502211949 | 0 | 70 | 1.0 | 5.0 | 0.00 | 0.00 | 0.00 | 1066.1 | |
| 20260502211445 | 0 | 22 | 6.0 | 10.0 | 0.00 | 0.00 | 0.00 | 1066.5 | |
| 20260502210943 | 0 | 116 | 3.0 | 7.0 | 0.00 | 0.00 | 0.00 | 1066.3 | |
| 20260502210439 | 0 | 95 | 1.0 | 2.0 | 0.00 | 0.00 | 0.00 | 1066.3 | |
| 20260502205937 | 0 | 329 | 5.0 | 8.0 | 0.00 | 0.00 | 0.00 | 1066.4 | |
| 20260502205433 | 0 | 121 | 1.0 | 3.0 | 0.00 | 0.00 | 0.00 | 1066.5 | |
| 20260502204930 | 0 | 41 | 2.0 | 3.0 | 0.00 | 0.00 | 0.00 | 1066.5 | |
| 20260502204427 | 0 | 85 | 1.0 | 8.0 | 0.00 | 0.00 | 0.00 | 1066.3 | |
| 20260502203925 | 0 | 47 | 4.0 | 7.0 | 0.00 | 0.00 | 0.00 | 1066.3 | |
| 20260502203422 | 0 | 149 | 1.0 | 3.0 | 0.00 | 0.00 | 0.00 | 1066.4 | |
| 20260502202918 | 0 | 344 | 9.0 | 10.0 | 0.00 | 0.00 | 0.00 | 1066.6 | |
| 20260502202415 | 0 | 40 | 4.0 | 5.0 | 0.00 | 0.00 | 0.00 | 1066.7 | |
| 20260502201913 | 0 | 304 | 4.0 | 5.0 | 0.00 | 0.00 | 0.00 | 1066.5 | |
| 20260502201409 | 0 | 322 | 5.0 | 8.0 | 0.00 | 0.00 | 0.00 | 1066.9 | |
| 20260502200906 | 0 | 61 | 3.0 | 6.0 | 0.00 | 0.00 | 0.00 | 1066.8 | |
| 20260502200401 | 0 | 92 | 2.0 | 5.0 | 0.00 | 0.00 | 0.00 | 1066.8 | |
| 20260502195859 | 0 | 47 | 1.0 | 5.0 | 0.00 | 0.00 | 0.00 | 1066.8 | |
| 20260502195356 | 0 | 259 | 4.0 | 7.0 | 0.00 | 0.00 | 0.00 | 1067.0 | |
| 20260502194852 | 0 | 89 | 4.0 | 10.0 | 0.00 | 0.00 | 0.00 | 1067.1 | |
| 20260502194349 | 0 | 325 | 3.0 | 6.0 | 0.00 | 0.00 | 0.00 | 1067.0 | |
| 20260502193845 | 0 | 289 | 3.0 | 5.0 | 0.00 | 0.00 | 0.00 | 1066.9 | |
| 20260502193343 | 0 | 70 | 4.0 | 6.0 | 0.00 | 0.00 | 0.00 | 1066.8 | |
| 20260502192838 | 0 | 62 | 4.0 | 5.0 | 0.00 | 0.00 | 0.00 | 1066.9 | |
| 20260502192335 | 0 | 277 | 0.0 | 3.0 | 0.00 | 0.00 | 0.00 | 1066.8 |